Weather History for KWWR - December, 2013

Change the Weather History Date:

Thursday, December 26, 2013

  Actual Average (KGAG) Record (KGAG)
Temperature  
Mean Temperature 44 °F -  
Max Temperature 57 °F 48 °F 78 °F (1971)
Min Temperature 30 °F 22 °F -2 °F (1962)
Degree Days  
Heating Degree Days 22    
Moisture  
Dew Point 28 °F    
Average Humidity 68    
Maximum Humidity 93    
Minimum Humidity 29    
Precipitation  
Precipitation 0.00 in - - ()
Sea Level Pressure  
Sea Level Pressure 30.31 in    
Wind  
Wind Speed 10 mph (SW)    
Max Wind Speed 17 mph    
Max Gust Speed 22 mph    
Visibility 10 miles    
Events      
Averages and records for this station are not official NWS values.
T = Trace of Precipitation, MM = Missing Value Source: NWS Daily Summary

Daily Weather History Graph

Daily Weather History Graph

Search for Another Location

Airport or City:

Trip Planner

Search our weather history database for the weather conditions in past years. The results will help you decide how hot, cold, wet, or windy it might be!

Date:

Astronomy

Dec. 26, 2013 Rise Set
Actual Time 7:48 AM CST 5:29 PM CST
Civil Twilight 7:19 AM CST 5:58 PM CST
Nautical Twilight 6:47 AM CST 6:30 PM CST
Astronomical Twilight 6:15 AM CST 7:01 PM CST
Moon 1:25 AM CST (12/26) 12:59 PM CST (12/26)
Length of Visible Light 10h 38m
Length of Day
9h 41m
Last Quarter, 38% of the Moon is Illuminated
Dec 26
Last Quarter
Jan 1
New
Jan 7
First Quarter
Jan 15
Full
Jan 23
Last Quarter

Hourly Weather History & Observations

Time (CST) Temp. Windchill Dew Point Humidity Pressure Visibility Wind Dir Wind Speed Gust Speed Precip Events Conditions
12:15 AM 32.0 °F 23.6 °F 28.4 °F 87% 30.41 in 10.0 mi SW 10.4 mph - N/A   Clear
12:35 AM 32.0 °F 24.2 °F 28.4 °F 87% 30.40 in 10.0 mi SSW 9.2 mph - N/A   Clear
12:55 AM 32.0 °F 24.2 °F 26.6 °F 80% 30.39 in 10.0 mi SSW 9.2 mph - N/A   Clear
1:15 AM 32.0 °F 23.6 °F 26.6 °F 80% 30.38 in 10.0 mi SSW 10.4 mph - N/A   Clear
1:35 AM 30.2 °F 21.9 °F 26.6 °F 86% 30.37 in 10.0 mi SW 9.2 mph - N/A   Clear
1:55 AM 32.0 °F 24.2 °F 26.6 °F 80% 30.37 in 10.0 mi SW 9.2 mph - N/A   Clear
2:15 AM 32.0 °F 23.0 °F 26.6 °F 80% 30.37 in 10.0 mi SW 11.5 mph - N/A   Clear
2:35 AM 32.0 °F 23.6 °F 26.6 °F 80% 30.37 in 10.0 mi SW 10.4 mph - N/A   Clear
2:55 AM 30.2 °F 21.9 °F 26.6 °F 86% 30.37 in 10.0 mi SW 9.2 mph - N/A   Clear
3:15 AM 30.2 °F 21.3 °F 24.8 °F 80% 30.37 in 10.0 mi SW 10.4 mph - N/A   Clear
3:35 AM 30.2 °F 21.9 °F 24.8 °F 80% 30.37 in 10.0 mi SSW 9.2 mph - N/A   Clear
3:55 AM 30.2 °F 21.3 °F 24.8 °F 80% 30.36 in 10.0 mi SSW 10.4 mph - N/A   Clear
4:15 AM 30.2 °F 21.9 °F 24.8 °F 80% 30.35 in 10.0 mi SW 9.2 mph - N/A   Clear
4:35 AM 30.2 °F 21.9 °F 24.8 °F 80% 30.34 in 10.0 mi SW 9.2 mph - N/A   Clear
4:55 AM 30.2 °F 21.9 °F 24.8 °F 80% 30.34 in 10.0 mi SW 9.2 mph - N/A   Clear
5:15 AM 30.2 °F 21.3 °F 26.6 °F 86% 30.34 in 10.0 mi SW 10.4 mph - N/A   Clear
5:35 AM 30.2 °F 21.3 °F 26.6 °F 86% 30.34 in 10.0 mi SSW 10.4 mph - N/A   Clear
5:55 AM 30.2 °F 21.3 °F 26.6 °F 86% 30.34 in 10.0 mi SW 10.4 mph - N/A   Clear
6:15 AM 30.2 °F 21.3 °F 26.6 °F 86% 30.34 in 10.0 mi SSW 10.4 mph - N/A   Clear
6:35 AM 30.2 °F 21.3 °F 26.6 °F 86% 30.33 in 10.0 mi SW 10.4 mph - N/A   Clear
6:55 AM 30.2 °F 20.8 °F 26.6 °F 86% 30.33 in 10.0 mi SSW 11.5 mph - N/A   Clear
7:15 AM 30.2 °F 21.9 °F 26.6 °F 86% 30.33 in 10.0 mi SSW 9.2 mph - N/A   Clear
7:35 AM 30.2 °F 21.3 °F 26.6 °F 86% 30.33 in 10.0 mi SSW 10.4 mph - N/A   Clear
7:55 AM 32.0 °F 23.6 °F 24.8 °F 75% 30.33 in 10.0 mi SSW 10.4 mph - N/A   Clear
8:15 AM 32.0 °F 23.6 °F 24.8 °F 75% 30.33 in 10.0 mi SSW 10.4 mph - N/A   Clear
8:35 AM 33.8 °F 24.3 °F 24.8 °F 70% 30.31 in 10.0 mi SSW 13.8 mph - N/A   Clear
8:55 AM 35.6 °F 26.6 °F 26.6 °F 70% 30.32 in 10.0 mi SSW 13.8 mph - N/A   Clear
9:15 AM 37.4 °F 28.5 °F 26.6 °F 65% 30.33 in 10.0 mi SSW 15.0 mph - N/A   Clear
9:35 AM 37.4 °F 28.5 °F 26.6 °F 65% 30.32 in 10.0 mi SSW 15.0 mph 20.7 mph N/A   Clear
9:55 AM 41.0 °F 33.9 °F 28.4 °F 61% 30.33 in 10.0 mi SW 12.7 mph 19.6 mph N/A   Clear
10:15 AM 41.0 °F 33.9 °F 28.4 °F 61% 30.33 in 10.0 mi SW 12.7 mph - N/A   Clear
10:35 AM 42.8 °F 35.4 °F 28.4 °F 57% 30.33 in 10.0 mi SW 15.0 mph 20.7 mph N/A   Clear
10:55 AM 44.6 °F 37.8 °F 28.4 °F 53% 30.33 in 10.0 mi SW 15.0 mph - N/A   Clear
11:15 AM 46.4 °F 40.4 °F 28.4 °F 50% 30.33 in 10.0 mi SW 13.8 mph - N/A   Clear
11:35 AM 46.4 °F 40.7 °F 30.2 °F 53% 30.33 in 10.0 mi WSW 12.7 mph 17.3 mph N/A   Clear
11:55 AM 50.0 °F - 30.2 °F 47% 30.32 in 10.0 mi WSW 12.7 mph - N/A   Clear
12:15 PM 51.8 °F - 30.2 °F 44% 30.30 in 10.0 mi SW 15.0 mph - N/A   Clear
12:35 PM 53.6 °F - 28.4 °F 38% 30.28 in 10.0 mi SW 17.3 mph 20.7 mph N/A   Clear
12:55 PM 53.6 °F - 28.4 °F 38% 30.27 in 10.0 mi SW 17.3 mph 21.9 mph N/A   Clear
1:15 PM 55.4 °F - 28.4 °F 36% 30.26 in 10.0 mi SW 15.0 mph - N/A   Clear
1:35 PM 55.4 °F - 28.4 °F 36% 30.26 in 10.0 mi WSW 12.7 mph 18.4 mph N/A   Clear
1:55 PM 55.4 °F - 28.4 °F 36% 30.25 in 10.0 mi WSW 12.7 mph - N/A   Clear
2:15 PM 57.2 °F - 26.6 °F 31% 30.25 in 10.0 mi WSW 15.0 mph - N/A   Clear
2:35 PM 57.2 °F - 26.6 °F 31% 30.24 in 10.0 mi WSW 16.1 mph - N/A   Clear
2:55 PM 57.2 °F - 26.6 °F 31% 30.23 in 10.0 mi SW 15.0 mph 20.7 mph N/A   Clear
3:15 PM 57.2 °F - 26.6 °F 31% 30.23 in 10.0 mi SW 15.0 mph - N/A   Clear
3:35 PM 57.2 °F - 24.8 °F 29% 30.24 in 10.0 mi WSW 11.5 mph - N/A   Clear
3:55 PM 57.2 °F - 24.8 °F 29% 30.24 in 10.0 mi WSW 10.4 mph - N/A   Clear
4:15 PM 57.2 °F - 26.6 °F 31% 30.24 in 10.0 mi West 10.4 mph - N/A   Clear
4:35 PM 55.4 °F - 26.6 °F 33% 30.24 in 10.0 mi West 8.1 mph - N/A   Clear
4:55 PM 53.6 °F - 28.4 °F 38% 30.25 in 10.0 mi West 8.1 mph - N/A   Clear
5:15 PM 50.0 °F - 30.2 °F 47% 30.26 in 10.0 mi WNW 6.9 mph - N/A   Clear
5:35 PM 46.4 °F 42.4 °F 32.0 °F 57% 30.26 in 10.0 mi NW 8.1 mph - N/A   Clear
5:55 PM 42.8 °F 38.6 °F 32.0 °F 66% 30.26 in 10.0 mi WNW 6.9 mph - N/A   Clear
6:15 PM 39.2 °F 35.0 °F 30.2 °F 70% 30.27 in 10.0 mi West 5.8 mph - N/A   Clear
6:35 PM 37.4 °F 32.8 °F 30.2 °F 75% 30.27 in 10.0 mi SW 5.8 mph - N/A   Clear
6:55 PM 37.4 °F - 30.2 °F 75% 30.28 in 10.0 mi Calm Calm - N/A   Clear
7:15 PM 37.4 °F 34.9 °F 30.2 °F 75% 30.28 in 10.0 mi West 3.5 mph - N/A   Clear
7:35 PM 39.2 °F 35.9 °F 30.2 °F 70% 30.28 in 10.0 mi West 4.6 mph - N/A   Clear
7:55 PM 35.6 °F 29.9 °F 30.2 °F 81% 30.29 in 10.0 mi SW 6.9 mph - N/A   Clear
8:15 PM 35.6 °F 29.9 °F 30.2 °F 81% 30.29 in 10.0 mi SW 6.9 mph - N/A   Clear
8:35 PM 33.8 °F 26.4 °F 28.4 °F 81% 30.30 in 10.0 mi SW 9.2 mph - N/A   Clear
8:55 PM 33.8 °F 27.0 °F 30.2 °F 87% 30.31 in 10.0 mi SW 8.1 mph - N/A   Clear
9:15 PM 33.8 °F 27.0 °F 30.2 °F 87% 30.32 in 10.0 mi SW 8.1 mph - N/A   Clear
9:35 PM 33.8 °F 27.7 °F 30.2 °F 87% 30.33 in 10.0 mi SW 6.9 mph - N/A   Clear
9:55 PM 33.8 °F 26.4 °F 30.2 °F 87% 30.33 in 10.0 mi SW 9.2 mph - N/A   Clear
10:15 PM 33.8 °F 27.7 °F 30.2 °F 87% 30.33 in 10.0 mi SW 6.9 mph - N/A   Clear
10:35 PM 32.0 °F 25.6 °F 30.2 °F 93% 30.34 in 10.0 mi SW 6.9 mph - N/A   Clear
10:55 PM 32.0 °F 24.8 °F 28.4 °F 87% 30.34 in 10.0 mi SW 8.1 mph - N/A   Clear
11:15 PM 32.0 °F 24.2 °F 30.2 °F 93% 30.34 in 10.0 mi SW 9.2 mph - N/A   Clear
11:35 PM 32.0 °F 23.6 °F 30.2 °F 93% 30.33 in 10.0 mi SSW 10.4 mph - N/A   Clear
11:55 PM 32.0 °F 24.2 °F 28.4 °F 87% 30.33 in 10.0 mi SSW 9.2 mph - N/A   Clear